CEST,Max TemperatureF,Mean TemperatureF,Min TemperatureF,Max Dew PointF,MeanDew PointF,Min DewpointF,Max Humidity, Mean Humidity, Min Humidity, Max Sea Level PressureIn, Mean Sea Level PressureIn, Min Sea Level PressureIn, Max VisibilityMiles, Mean VisibilityMiles, Min VisibilityMiles, Max Wind SpeedMPH, Mean Wind SpeedMPH, Max Gust SpeedMPH,PrecipitationIn, CloudCover, Events, WindDirDegrees
2013-5-1,80,70,59,61,54,45,94,59,36,30.06,30.04,29.98,6,6,6,8,3,,0.00,3,Rain,220
2013-5-2,77,68,60,64,60,57,94,80,57,29.98,29.95,29.92,6,5,3,10,3,,0.00,4,Rain,342
2013-5-3,82,68,55,63,59,55,100,67,42,29.98,29.93,29.89,,,,9,4,,0.00,,,306
2013-5-4,82,71,60,61,58,54,94,59,42,29.98,29.94,29.89,6,6,6,8,2,,0.00,1,,272
2013-5-5,73,68,60,63,60,54,100,84,57,30.04,29.99,29.95,6,6,5,8,2,,0.00,3,Rain,332
2013-5-6,66,62,59,61,59,57,94,88,82,29.98,29.93,29.92,6,5,2,8,4,,0.00,5,Rain-Thunderstorm,239
2013-5-7,71,66,60,59,57,54,88,76,64,30.04,30.00,29.95,6,6,5,8,3,,0.00,3,Rain,300
2013-5-8,73,66,59,59,55,52,94,66,53,29.98,29.95,29.92,6,6,5,13,4,,0.00,2,Rain,279
2013-5-9,77,66,55,59,55,52,94,64,47,29.98,29.96,29.92,6,5,2,8,4,,0.00,3,,255
2013-5-10,73,66,60,63,59,55,94,76,53,29.98,29.94,29.92,6,4,2,7,4,,0.00,3,Rain,223
2013-5-11,71,66,62,61,59,57,94,74,60,29.89,29.87,29.83,6,6,5,14,6,,0.00,4,,214
2013-5-12,71,65,59,59,57,54,94,71,56,29.86,29.85,29.80,6,6,6,16,7,,0.00,3,,298
2013-5-13,73,65,57,55,46,37,88,48,31,29.95,29.93,29.92,,,,18,11,,0.00,,,348
2013-5-14,77,65,53,57,49,43,88,55,31,30.01,29.95,29.89,,,,9,4,,0.00,,,257
2013-5-15,71,62,53,57,52,48,94,65,46,29.83,29.76,29.71,6,6,6,14,6,,0.00,4,Rain,176
2013-5-16,71,66,60,61,58,54,88,77,56,29.59,29.55,29.53,6,6,5,20,13,28,0.00,3,Rain,137
2013-5-17,68,65,62,63,55,48,94,70,52,29.92,29.73,29.59,6,6,4,15,11,,0.00,3,Rain,212
2013-5-18,77,66,55,57,53,48,94,57,41,29.98,29.92,29.83,6,6,6,10,5,,0.00,2,Rain,185
2013-5-19,69,66,62,55,51,48,77,60,49,30.04,29.98,29.89,6,6,6,15,11,,0.00,3,,243
2013-5-20,69,63,57,55,49,43,94,59,43,30.12,30.09,30.06,6,6,6,10,5,,0.00,3,,230
2013-5-21,68,62,55,57,53,46,94,72,52,30.04,29.94,29.86,6,6,4,10,5,,0.00,3,Rain,1
2013-5-22,73,66,59,63,58,55,88,77,53,29.74,29.53,29.42,6,6,4,14,7,,0.00,4,Rain-Thunderstorm,15
2013-5-23,66,62,57,57,55,52,94,80,60,29.65,29.54,29.47,6,6,6,12,8,,0.00,4,Rain,341
2013-5-24,66,62,57,55,49,41,82,62,42,29.86,29.79,29.68,6,6,6,21,13,32,0.00,4,,243
2013-5-25,64,60,55,50,46,45,82,62,52,29.86,29.84,29.83,6,6,6,22,10,34,0.00,4,Rain,235
2013-5-26,66,57,48,48,46,43,93,60,48,29.98,29.94,29.86,6,6,6,9,3,,0.00,5,,279
2013-5-27,69,60,50,52,46,36,88,56,30,30.01,29.98,29.95,6,6,6,14,6,,0.00,3,,215
2013-5-28,75,66,57,54,49,46,82,53,38,29.83,29.73,29.65,,,,9,6,,0.00,,,307
2013-5-29,68,64,59,59,53,48,88,67,52,29.74,29.71,29.68,6,6,6,15,7,,0.00,3,Rain,224
2013-5-30,64,58,53,57,51,48,88,73,56,29.74,29.73,29.71,6,6,6,17,7,,0.00,4,Rain-Thunderstorm,221
2013-5-31,66,58,50,54,50,43,100,66,43,29.74,29.72,29.71,6,6,6,21,9,25,0.00,5,,236